AirNav   Phillips 66 Aviation Fuel
 
 1361 users online  

E95 Benson Municipal Airport
Benson, Arizona, USA

GOING TO BENSON?


FAA INFORMATION EFFECTIVE 11 OCTOBER 2018

Location

FAA Identifier: E95
Lat/Long: 31-59-58.0000N / 110-21-28.7000W
31-59.966667N / 110-21.478333W
31.9994444 / -110.3579722
(estimated)
Elevation: 3830.9 ft. / 1167.7 m (surveyed)
Variation: 12E (1995)
From city: 3 miles NW of BENSON, AZ
Time zone: UTC -7 (year round; does not observe DST)
Zip code: 85602

Airport Operations

Airport use: Open to the public
Activation date: 11/1999
Control tower: no
ARTCC: ALBUQUERQUE CENTER
FSS: PRESCOTT FLIGHT SERVICE STATION
NOTAMs facility: PRC (NOTAM-D service available)
Attendance: CONTINUOUS
Wind indicator: lighted
Segmented circle: yes
Lights: ACTVT MIRL RY 10/28 - CTAF.
Beacon: white-green (lighted land airport)
Operates sunset to sunrise.

Airport Communications

CTAF/UNICOM: 122.8
WX AWOS-3: 118.475 (520-586-4409)

Nearby radio navigation aids

VOR radial/distance  VOR name  Freq  Var
FHUr347/24.6LIBBY VOR/DME113.6013E
TUSr089/28.9TUCSON VORTAC116.0012E

 
NDB name  Hdg/Dist  Freq  Var  ID
DRAGOO345/24.841013EDAO -.. .- ---

Airport Services

Fuel available: 100LL JET-A
Parking: tiedowns
Airframe service: MAJOR
Powerplant service: MAJOR

Runway Information

Runway 10/28

Dimensions: 4002 x 75 ft. / 1220 x 23 m
Surface: asphalt, in excellent condition
Weight bearing capacity: 
Single wheel: 12.5
Runway edge lights: medium intensity
RUNWAY 10  RUNWAY 28
Latitude: 32-00.027858N31-59.906303N
Longitude: 110-21.858230W110-21.097155W
Elevation: 3830.9 ft.3803.8 ft.
Gradient: 0.7% UP
Traffic pattern: leftleft
Runway heading: 089 magnetic, 101 true269 magnetic, 281 true
Markings: basic, in good conditionbasic, in good condition
Visual slope indicator: 2-light PAPI on left (3.00 degrees glide path)2-light PAPI on left (3.00 degrees glide path)
Runway end identifier lights: yesyes
Touchdown point: yes, no lightsyes, no lights
Obstructions: 5 ft. brush, 220 ft. from runway, 4:1 slope to clear
RY 10, 5-8 FT BRUSH 0-200 FT FM THRESHOLD, 105-125 FT RIGHT OF CNTRLN.
8 ft. brush, 235 ft. from runway, 45 ft. left of centerline, 4:1 slope to clear
RY 28, +4-6 FT. BRUSH 0-50 FT. FROM THRESHOLD, 120-125 FT. RIGHT OF CENTERLINE; +4 FT. BRUSH 130 FT. FROM THRESHOLD, 30 FT. LEFT OF CENTERLINE; +3 FT. BRUSH 150 FT. FROM THRESHOLD, 10 FT. LEFT OF CENTERLINE.

Airport Ownership and Management from official FAA records

Ownership: Publicly-owned
Owner: CITY OF BENSON
P.O BOX 2223
BENSON, AZ 85602
Phone 520-586-2245
Manager: BRAD HAMILTON
P.O BOX 2223
BENSON, AZ 85602
Phone 520-586-2245

Airport Operational Statistics

Aircraft based on the field: 38
Single engine airplanes: 32
Multi engine airplanes: 1
Jet airplanes: 2
Helicopters: 1
Ultralights: 2
    
Aircraft operations: avg 67/day *
61% transient general aviation
37% local general aviation
2% military
* for 12-month period ending 15 April 2017

Additional Remarks

RY 10 HAS FOUR 15 FT DITCHES BOTH SIDES OF RY ENDS & WEST HALF OF RY WITH HEADWALLS 130 FT SOUTH OF CENTERLINE.
RY 10, 110 FT TWY EXTENDS FM RY THRESHOLD TO WEST.
LIVESTOCK ON OR INVOF AIRPORT.
ERRATIC WIND CURRENTS .5 NM FM THRESHOLD WHEN WINDS ARE IN EXCESS OF 10 KTS.
FOR CD CTC TUS APCH AT 520-829-6121.

Instrument Procedures

There are no published instrument procedures at E95.

Some nearby airports with instrument procedures:

KFHU - Sierra Vista Municipal Airport-Libby Army Airfield (25 nm S)
P33 - Cochise County Airport (28 nm NE)
KDMA - Davis Monthan Air Force Base (29 nm W)
KTUS - Tucson International Airport (30 nm W)
KRYN - Ryan Field Airport (42 nm W)
 
Loc | Ops | Rwys | IFR | FBO | Links
Com | Nav | Svcs | Stats | Notes


 
Area around E95 (Benson Municipal Airport)
 
Road maps at: MapQuest Bing Google
 
Aerial photo
WARNING: Photo may not be current or correct
Aerial photo of E95 (Benson Municipal Airport)
Photo by Jassen Photography
Photo taken 13-Nov-2015
looking northwest.

Do you have a better or more recent aerial photo of Benson Municipal Airport that you would like to share? If so, please send us your photo.

 
Sectional chart

 
Airport distance calculator
Flying to Benson Municipal Airport? Find the distance to fly.

From to E95

Sunrise and sunset
Times for 15-Oct-2018
 Local
(UTC-7)
 Zulu
(UTC)
Morning civil twilight06:0113:01
Sunrise06:2613:26
Sunset17:4900:49
Evening civil twilight18:1301:13

Current date and time
Zulu (UTC)  15-Oct-2018 21:38:12
Local (UTC-7)  15-Oct-2018 14:38:12
 
METAR
KFHU 
24nm S 
152058Z 00000KT 10SM BKN050 OVC100 18/08 A3002 RMK AO2A SLP118 T01790078 57019
KDMA 
28nm W 
152058Z AUTO 32008KT 10SM FEW085 24/10 A2994 RMK AO2 SLP109 T02410096 57022 $
KTUS 
31nm W 
152053Z 34007KT 10SM FEW080 SCT100 24/09 A2995 RMK AO2 SLP108 T02390089 58023
KRYN 
42nm W 
152045Z 30008KT 10SM CLR 23/12 A2996
KOLS 
43nm SW 
152054Z AUTO 23006KT 10SM CLR 23/06 A2997 RMK AO2 SLP100 T02280056 58022
TAF
KFHU 
24nm S 
151801Z 1518/1624 11009KT 9999 SCT030 BKN050 QNH3006INS BECMG 1521/1522 10012G18KT 9999 VCSH BKN050 BKN100 510009 QNH3004INS BECMG 1523/1524 12018G25KT 9999 NSW BKN050 BKN100 520009 QNH3005INS TEMPO 1601/1606 12020G30KT BKN035 530009 BECMG 1609/1610 11012G18KT 9999 BKN050 OVC100 510009 QNH3007INS BECMG 1614/1615 12010G15KT 9999 SCT060 BKN100 QNH3006INS TX17/1521Z TN09/1612Z
KDMA 
28nm W 
151405Z 1514/1620 14009KT 9999 SCT060 BKN100 QNH2995INS BECMG 1517/1518 11009KT 9999 SCT100 QNH2999INS BECMG 1600/1601 11018G25KT 9999 VCSH OVC050 520009 QNH2995INS TEMPO 1601/1610 12020G30KT 9000 -RA OVC030 BECMG 1609/1610 12015G25KT 9999 VCSH BKN030 OVC050 QNH2997INS BECMG 1611/1612 12020G30KT 9999 NSW BKN030 OVC050 QNH2998INS BECMG 1617/1618 12015G25KT 9999 SCT030 BKN050 QNH2997INS TX23/1521Z TN11/1612Z
NOTAMs
Click for the latest NOTAMs
NOTAMs are issued by the DoD/FAA and will open in a separate window not controlled by AirNav.

 

 
 

FBO, Fuel Providers, and Aircraft Ground Support

  
 Business Name 
 
 Contact 
 
 Services / Description 
 
Fuel Prices
 
Comments
  
 Southwestern Aviation, LLC
UNICOM 122.80
520-586-3262
[web site]
[email]
Aviation fuel, Aircraft parking (ramp or tiedown), Flight training, Aircraft rental, Aerial tours / aerial sightseeing, Aviation accessories, ...

More info about Southwestern Aviation, LLC
Avfuel
100LL Jet A
FS $5.25 $5.25 
 Updated 09-Oct-2018
 
   72 read write
FS=Full service
Update Fuel Prices
 

Would you like to see your business listed on this page?

 If your business provides an interesting product or service to pilots, flight crews, aircraft, or users of the Benson Municipal Airport, you should consider listing it here.  To start the listing process, click on the button below
 
Add a business
 

Other Pages about Benson Municipal Airport

www.cityofbenson.com/commfac.htm
 
Update a link
 
Copyright © AirNav, LLC. All rights reserved. Privacy Policy  Contact